TimeEDT,TemperatureF,Dew PointF,Humidity,Sea Level PressureIn,VisibilityMPH,Wind Direction,Wind SpeedMPH,Gust SpeedMPH,PrecipitationIn,Events,Conditions,WindDirDegrees,DateUTC
12:53 AM,46.9,41.0,80,30.02,10.0,NNE,6.9,-,N/A,,Mostly Cloudy,20,2013-04-18 04:53:00
1:53 AM,46.0,41.0,83,29.99,10.0,NE,10.4,-,N/A,,Clear,40,2013-04-18 05:53:00
2:53 AM,44.1,41.0,89,29.95,10.0,NE,11.5,-,N/A,,Clear,50,2013-04-18 06:53:00
3:53 AM,59.0,54.0,83,29.90,10.0,SSE,9.2,-,N/A,,Clear,150,2013-04-18 07:53:00
4:53 AM,62.1,55.0,78,29.89,10.0,SSE,15.0,24.2,N/A,,Clear,160,2013-04-18 08:53:00
5:53 AM,62.1,55.0,78,29.87,10.0,SSE,16.1,24.2,N/A,,Mostly Cloudy,160,2013-04-18 09:53:00
6:53 AM,62.1,55.9,80,29.88,10.0,SSE,17.3,-,N/A,,Clear,160,2013-04-18 10:53:00
7:53 AM,64.0,55.9,75,29.87,10.0,South,18.4,25.3,N/A,,Mostly Cloudy,170,2013-04-18 11:53:00
8:53 AM,66.0,55.9,70,29.86,10.0,South,19.6,28.8,N/A,,Clear,170,2013-04-18 12:53:00
9:53 AM,72.0,57.9,61,29.84,10.0,South,16.1,23.0,N/A,,Mostly Cloudy,170,2013-04-18 13:53:00
10:53 AM,73.9,60.1,62,29.83,10.0,South,17.3,28.8,N/A,,Overcast,170,2013-04-18 14:53:00
11:53 AM,75.9,60.1,58,29.80,10.0,South,19.6,29.9,N/A,,Mostly Cloudy,190,2013-04-18 15:53:00
12:53 PM,80.1,61.0,52,29.77,10.0,SSW,21.9,32.2,N/A,,Partly Cloudy,210,2013-04-18 16:53:00
1:53 PM,81.0,60.1,49,29.74,10.0,SSW,21.9,32.2,N/A,,Scattered Clouds,200,2013-04-18 17:53:00
2:53 PM,82.9,57.9,42,29.71,10.0,South,21.9,39.1,N/A,,Clear,190,2013-04-18 18:53:00
3:53 PM,84.0,59.0,43,29.69,10.0,South,21.9,32.2,N/A,,Scattered Clouds,180,2013-04-18 19:53:00
4:53 PM,82.9,57.0,41,29.67,10.0,South,24.2,40.3,N/A,,Partly Cloudy,190,2013-04-18 20:53:00
5:53 PM,84.9,52.0,32,29.65,10.0,SSW,21.9,36.8,N/A,,Clear,200,2013-04-18 21:53:00
6:53 PM,82.9,51.1,33,29.64,10.0,SSW,17.3,35.7,N/A,,Partly Cloudy,200,2013-04-18 22:53:00
7:53 PM,57.0,51.1,81,29.68,10.0,WNW,11.5,-,N/A,,Mostly Cloudy,300,2013-04-18 23:53:00
8:53 PM,57.0,54.0,89,29.70,10.0,Calm,Calm,-,N/A,,Mostly Cloudy,0,2013-04-19 00:53:00
9:53 PM,57.0,54.0,89,29.71,10.0,Calm,Calm,-,N/A,,Overcast,0,2013-04-19 01:53:00
10:53 PM,60.1,55.0,83,29.70,10.0,Calm,Calm,-,N/A,,Mostly Cloudy,0,2013-04-19 02:53:00
11:53 PM,63.0,55.0,75,29.68,10.0,Calm,Calm,-,N/A,,Overcast,0,2013-04-19 03:53:00